Regional Weather Roundup
Issued by NWS

Home | Current Version | Previous Version | Graphics & Text | Print | Product List | Glossary On
Versions: 1 2 3 4 5 6 7 8 9 10 11 12 13 14 15 16 17 18 19 20 21 22 23 24 25 26 27 28 29 30 31 32 33 34 35 36 37 38 39 40 41 42 43 44 45 46 47 48 49 50
000
ASUS43 KIND 191609
RWRIN

WEATHER ROUNDUP FOR INDIANA
NATIONAL WEATHER SERVICE INDIANAPOLIS IN
1100 AM EST FRI DEC 19 2014

NOTE: "FAIR" INDICATES FEW OR NO CLOUDS BELOW 12,000 FEET WITH NO
SIGNIFICANT WEATHER AND/OR OBSTRUCTIONS TO VISIBILITY.

* - STATION DOES NOT REPORT WEATHER SUCH AS PRECIPITATION OR FOG.

+ - STATION NOT QUALITY CONTROLLED BY THE NATIONAL WEATHER SERVICE.
    USE DATA WITH CAUTION...ESPECIALLY DEWPOINT AND RELATIVE
    HUMIDITY OBSERVATIONS.

INZ001>003-010>013-019-020-191700-
NORTHWEST INDIANA

CITY           SKY/WX    TMP DP  RH WIND       PRES   REMARKS
GARY /AIRPORT/ CLOUDY    34  19  55 CALM      30.33R
KNOX *+        CLOUDY    31  24  75 W6        30.29R WCI  25
LA PORTE +     CLOUDY    33  27  81 E3        30.30R
MICHIGAN CITY+ CLOUDY    32  23  69 CALM      30.30R
MONTICELLO +   CLOUDY    27  24  91 W3        30.31R
RENSSELAER +   CLOUDY    30  28  93 W5        30.33R WCI  25
VALPARAISO     CLOUDY    31  23  72 NW8       30.31R WCI  23

$$

LMZ046-743>745-191700-
SOUTHERN LAKE MICHIGAN

STATION/POSITION TIME  TEMP WIND        PRES
                       AIR  DIR/SP/G
                 (UTC) (F)  (DEG/KT/KT) (MB)

$$

INZ004-005-014>016-021>024-191700-
NORTH CENTRAL INDIANA

CITY           SKY/WX    TMP DP  RH WIND       PRES   REMARKS
ELKHART        MOSUNNY   32  18  55 CALM      30.30
GOSHEN         SUNNY     31  21  66 N6        30.29R WCI  25
LOGANSPORT +   CLOUDY    28  23  80 W5        30.32S FOG     WCI  23
PERU/GRISSOM   CLOUDY    27  27 100 W6        30.30S WCI  20
ROCHESTER +    PTSUNNY   32  28  86 SW3       30.31R FOG
SOUTH BEND     CLOUDY    32  24  72 N3        30.30R
WARSAW +       CLOUDY    30  27  86 CALM      30.29R

$$

INZ006>009-017-018-025>027-191700-
NORTHEAST INDIANA

CITY           SKY/WX    TMP DP  RH WIND       PRES   REMARKS
ANGOLA *+      CLOUDY    27  16  63 CALM      30.26R
AUBURN +       CLOUDY    30  25  80 CALM      30.29R HAZE
FORT WAYNE     PTSUNNY   29  24  82 SW9       30.30R WCI  20
HUNTINGTON +   CLOUDY    28  24  85 W3        30.30S

$$

INZ028-029-035-036-043>045-051>053-191700-
WEST CENTRAL INDIANA

CITY           SKY/WX    TMP DP  RH WIND       PRES   REMARKS
CRAWFORDSVL +  CLOUDY    25  18  74 CALM      30.32R
GREENCASTLE +  CLOUDY    27  19  74 CALM      30.33R
LAFAYETTE      CLOUDY    25  22  88 CALM      30.33R FOG
TERRE HAUTE    SUNNY     29  20  69 N3        30.34R

$$

INZ030>032-037>040-046>048-054>057-064-065-191700-
CENTRAL INDIANA

CITY           SKY/WX    TMP DP  RH WIND       PRES   REMARKS
ANDERSON       CLOUDY    27  19  74 CALM      30.31S
CP ATTERBURY + CLOUDY    28  25  86 MISG      30.33R
COLUMBUS       CLOUDY    27  25  93 CALM      30.33R
FRANKFORT +    PTSUNNY   26  24  89 W3        30.32S FOG
GREENWOOD *+   CLOUDY    27  19  74 CALM      30.31
INDIANAPOLIS   CLOUDY    25  20  81 NW3       30.31R
-EAGLE CREEK   CLOUDY    26  21  81 CALM      30.31R
KOKOMO *+      CLOUDY    27  21  80 W6        30.31R WCI  20
MARION +       CLOUDY    27  24  88 W3        30.31S FOG
MT COMFORT *+  PTSUNNY   27  18  69 CALM      30.31R
SHELBYVILLE    CLOUDY    28  21  75 NW3       30.31R
ZIONSVILLE +   CLOUDY    27  21  77 CALM      30.31R

$$

INZ033-034-041-042-049-050-058-059-191700-
EAST CENTRAL INDIANA

CITY           SKY/WX    TMP DP  RH WIND       PRES   REMARKS
MUNCIE         CLOUDY    27  21  78 CALM      30.29S

$$

INZ060-061-067>069-081>083-085>088-191700-
SOUTHWEST INDIANA

CITY           SKY/WX    TMP DP  RH WIND       PRES   REMARKS
EVANSVILLE     MOSUNNY   33  24  69 NE7       30.34S WCI  27
HUNTINGBURG *+ MOSUNNY   28  21  74 NE7       30.32F WCI  21
WASHINGTON +   MOSUNNY   30  22  72 NE6       30.31F WCI  24

$$

INZ062-063-066-070>080-084-089>092-191700-
SOUTH CENTRAL AND SOUTHEAST INDIANA

CITY           SKY/WX    TMP DP  RH WIND       PRES   REMARKS
BLOOMINGTON    MOSUNNY   29  21  72 E7        30.31R WCI  22
NORTH VERNON + PTSUNNY   28  27  93 N5        30.32  WCI  23

$$




USA.gov is the U.S. government's official web portal to all federal, state and local government web resources and services.